CAPE
0 0 0 2 2 0 0 0 0 0 0 0 0 0 0 0 0 8 121 90 0 0 25 61 228 375 623 365 440 846 825 716 1044 1531 1529 1466 1512 1495 1066 1360 2004 1700 1402 2015 1658 1492 1519 1532 1735 1866 1804 1708 1782 1663 1626 1582 1596 1729 1616 1427 1372 1131 878 622 553 630 660 623 554 483 512 501 646 674 733 782 826 792 740 690 582 619 569 622 599 451 369
0 0 0 0 0 0 0 0 0 0 0 0 0 0 0 0 0 0 0 277 3 10 10 0 58 116 76 246 436 540 766 915 1364 1816 1749 1587 1611 1203 698 950 1352 1632 1544 2077 1869 1682 1644 1374 1570 1692 1924 2179 2040 1859 1887 1650 1807 1782 1723 1564 1452 1228 1044 874 662 510 642 658 571 615 582 732 790 821 796 852 856 792 728 775 768 778 804 777 743 636 699
0 0 0 0 0 0 0 15 0 0 0 0 0 0 0 0 0 0 0 0 194 290 1167 749 708 515 333 1401 1531 1660 1379 1242 1386 1483 1530 1372 1317 891 768 1314 1724 1881 1848 1992 2032 1862 1626 1459 1442 1442 1698 1944 1967 1779 1940 1825 1905 1880 1653 1648 1540 1371 1086 788 745 578 889 680 636 631 702 808 863 903 857 808 834 834 770 680 829 852 795 758 652 706 714
0 0 0 0 0 0 0 0 0 0 0 0 2 0 0 0 0 0 0 3 417 691 516 541 596 420 544 1426 1175 1100 1148 1071 1764 2157 1370 1447 1300 1176 1146 1102 1587 1852 1828 1971 2106 1863 1775 1859 1654 1647 1786 1868 1776 1732 1889 1977 1852 1903 1718 1705 1630 1519 1230 958 722 614 773 633 610 673 722 780 896 765 816 805 848 828 731 603 781 603 559 597 569 584 434
0 0 0 0 0 0 0 0 0 0 0 0 0 0 5 18 5 0 28 701 598 542 583 482 310 571 716 1326 1322 1500 1398 1251 1419 1584 1686 944 1137 1102 1493 1700 1943 2064 1854 1997 2264 2052 1600 1507 1805 1849 1920 1842 1764 1756 1839 1983 1926 1897 1818 1845 1721 1540 1239 967 700 672 646 611 574 741 727 948 847 876 969 798 824 833 642 564 612 749 705 610 499 377 288
0 0 0 0 0 0 0 0 0 0 0 0 0 0 0 0 0 317 826 622 594 454 440 334 322 366 914 1264 1480 1472 1487 1477 1536 1544 1657 1610 1561 1519 1641 1676 1649 1949 2261 2279 2256 2546 2510 1880 1556 1706 1622 1795 1828 1843 1882 2134 2042 2034 2010 1836 1786 1720 1448 1097 992 698 644 600 654 654 847 883 931 984 816 859 799 937 764 725 685 622 465 497 357 450 341
0 1 0 0 0 0 0 0 0 0 0 0 0 0 0 0 18 220 276 329 670 1035 778 665 498 525 681 1105 1310 1602 1502 1390 1285 1453 1478 1551 1629 1434 1403 1583 1225 1611 2036 2154 2270 2445 2292 1867 1328 1528 1816 1867 1972 1989 2106 2206 2200 2102 1983 1872 2319 1856 1788 1428 1245 700 688 615 597 660 834 877 814 804 820 868 939 871 850 762 616 516 525 353 252 244 219
0 0 0 0 0 55 0 0 0 0 0 0 0 0 0 257 299 410 178 88 247 1009 839 688 1032 997 666 938 1503 1462 1641 1496 1526 1552 1486 1250 1363 1455 1161 1507 1612 1776 1428 2556 1832 2097 2216 2443 1937 1470 1710 2006 2063 2212 2141 2114 2058 2085 1940 2027 1637 1572 1459 1288 1062 834 709 634 662 732 734 777 694 795 772 815 716 718 660 636 626 444 257 114 74 66 55
5 0 0 0 0 0 0 9 1 0 0 0 0 1 64 173 220 242 279 440 543 897 938 778 792 824 583 1029 1014 1800 1516 1200 912 856 781 861 995 1096 1252 1032 1674 3047 2873 2926 2205 2674 3047 2455 2264 1406 1323 1090 1046 1076 1622 1886 2128 1982 1817 1840 1673 1627 1512 1192 849 784 756 718 710 783 800 714 704 694 694 681 626 620 557 452 356 129 61 28 22 76 177
0 0 0 0 0 0 0 9 27 2 1 0 5 6 175 7 3 37 58 219 639 799 895 943 1344 965 831 1068 1232 1312 1059 896 488 367 490 673 971 850 808 1340 2599 3017 2767 2244 2187 2306 3148 2713 1975 1492 1112 1112 1000 850 948 1800 1932 2078 1887 1750 1614 1708 1442 1151 872 908 832 778 846 787 711 760 658 685 750 663 639 494 372 284 166 127 72 38 96 76 11
39 0 0 1 4 176 43 21 0 0 0 0 0 0 77 35 3 0 5 4 573 437 709 820 824 580 555 668 646 1819 1450 917 514 227 228 346 426 599 1501 1799 2346 2600 2877 2524 2296 2019 2228 2143 1998 1857 1494 1196 1165 973 1239 944 1106 1793 1732 1806 1808 1596 1254 957 1136 943 850 816 766 661 588 592 545 595 589 510 383 382 342 160 40 38 6 0 0 16 57
90 79 8 1 292 391 66 1 0 0 0 2 0 0 22 24 98 15 23 90 768 483 804 1192 890 536 397 486 930 756 864 778 898 412 438 372 475 1038 1540 2368 2720 2697 2290 2061 1998 2034 1930 1728 1694 1784 1742 1452 1106 1021 1043 634 844 1251 1526 1717 1700 1421 1286 1291 1118 1218 903 639 618 584 538 495 636 637 426 387 247 153 140 5 1 9 37 4 31 43 87
34 98 29 0 62 551 197 112 0 0 0 0 6 134 461 58 0 0 1 4 577 990 1002 681 662 684 286 958 880 348 552 854 687 938 1054 1030 946 1209 1952 2202 2302 2428 2067 1869 1752 1595 1721 1769 1701 1535 1244 1324 1194 914 774 840 848 1424 1534 1638 1471 1214 1189 871 724 675 773 571 555 490 467 416 382 337 324 216 132 94 74 106 71 96 105 150 126 146 201
94 54 4 47 472 658 16 51 20 0 0 3 6 280 1007 972 52 7 252 377 779 1012 826 480 335 354 327 489 518 544 432 604 630 966 1522 1839 1800 2041 1894 1748 1898 1836 1842 1977 2034 2075 1988 1539 1446 1490 1374 1172 1156 862 709 936 1429 1503 1390 1295 1362 1204 742 686 648 576 524 431 364 295 218 260 219 202 173 92 6 27 138 182 180 146 156 199 195 174 202
30 48 7 169 34 567 81 16 128 0 30 437 518 714 786 323 95 206 356 360 242 396 478 447 1061 823 452 899 826 773 458 429 585 710 1681 1857 1832 1720 1650 1349 1192 1402 1614 1608 1662 1496 1468 1627 1612 1244 1325 1390 1139 914 1068 1060 1064 1235 1080 888 764 740 650 609 594 488 395 370 199 68 49 134 165 92 107 108 99 132 142 223 233 195 196 170 177 194 187
367 199 51 192 60 153 6 35 414 858 740 590 1176 1110 782 288 262 418 438 361 279 188 342 527 1038 994 833 698 737 590 777 1798 1553 1922 2176 1838 1499 1351 1215 1379 1304 1264 1135 1150 1034 1264 787 1506 1788 1672 1644 1334 1254 1040 765 686 583 656 696 633 511 462 471 466 379 323 179 119 30 124 181 262 26 67 136 217 284 533 338 376 402 315 300 274 225 179 151
1099 902 602 772 1553 562 436 773 1105 813 624 457 390 551 497 600 795 658 652 835 849 891 1195 1515 1303 1119 935 873 908 1112 1566 1624 1682 1644 1588 1564 1415 1107 980 1069 940 790 747 912 1411 1399 1348 1257 1304 1681 1491 1444 1168 892 659 629 497 354 314 390 300 276 217 175 103 67 13 50 131 29 0 0 1 54 130 86 236 336 273 257 284 280 282 74 96 72 99
1190 979 931 1190 1158 496 504 857 964 744 443 271 274 242 462 568 1118 946 922 785 914 1437 1516 1520 1660 1418 1298 1256 1190 1318 1511 1511 1417 1317 1265 1266 1358 1152 1033 1041 741 792 806 954 1111 1162 1123 1001 1182 1602 1254 1036 752 540 485 602 487 438 405 358 312 169 107 28 168 0 0 0 0 0 0 1 138 151 18 38 91 180 139 142 130 163 100 30 22 13 18
920 810 1267 836 448 851 453 323 467 556 518 433 226 266 908 1334 1160 1188 1485 1428 1854 1576 1323 1364 1458 1527 1537 1551 1459 1521 1430 1314 1207 1114 1076 959 1140 1000 1073 1016 1187 1010 837 912 945 991 960 962 991 808 552 443 515 652 852 428 286 276 108 235 116 16 4 0 0 0 0 1 0 0 0 3 0 0 4 8 5 67 66 14 11 40 14 7 6 4 10
905 938 960 912 859 502 615 535 692 1582 1252 1032 1391 851 800 1282 1343 1394 1608 1801 1535 1360 1296 1106 1161 1209 1382 1500 1515 1510 1517 1400 1302 1306 1385 1240 1190 1172 1177 1049 937 898 979 862 733 762 856 594 545 499 579 631 448 519 248 314 161 196 146 6 3 0 0 0 2 0 1 1 0 0 0 0 0 0 5 2 0 6 2 0 0 0 0 0 1 8 10
1099 1096 844 790 832 796 841 689 641 844 888 844 903 874 632 783 1018 982 1130 1319 1360 1492 1255 1398 1279 1295 1423 1156 1368 1274 1380 1466 1296 1021 1007 1113 1248 1356 1207 1364 1268 1274 890 825 832 729 692 678 639 599 524 470 549 484 380 302 527 217 59 20 52 0 0 0 0 2 0 0 0 0 0 0 6 146 130 0 2 0 0 0 0 0 0 0 4 3 4
941 830 845 592 896 1015 774 668 728 969 958 1084 630 720 724 517 377 593 1145 586 728 882 1052 1414 1238 1318 1292 1240 1360 1443 1354 1181 1230 1160 1116 1074 979 995 1021 999 876 876 932 888 814 808 780 760 650 710 522 492 590 421 394 358 320 316 205 100 0 0 0 0 0 0 0 0 0 0 0 0 0 0 23 0 0 0 0 1 19 0 0 2 2 2 2
504 650 655 1246 1730 1288 819 580 522 870 900 686 881 1237 1297 814 419 1077 571 1048 1138 1104 989 1134 1256 1556 1828 1435 1393 1252 996 1141 1186 1200 1128 1137 1028 818 662 716 760 890 861 830 765 759 760 867 757 766 664 450 468 379 466 225 178 270 134 122 2 0 0 0 0 0 0 0 0 61 5 0 0 0 0 0 0 0 0 0 0 0 0 0 0 0 21
1138 892 1481 1272 1042 1130 882 597 505 303 664 804 740 691 620 413 430 486 453 572 1170 713 990 901 1357 1432 1378 1164 929 987 1004 940 926 979 929 994 1008 984 874 926 894 794 734 686 638 628 625 552 637 726 440 334 354 490 372 275 148 196 38 72 79 1 0 0 12 0 0 0 1 0 28 54 28 12 1 0 0 4 0 0 0 0 0 0 0 0 5
1276 1142 1746 1550 1135 964 650 648 444 593 682 1392 512 1322 908 443 302 410 548 950 658 906 1040 855 924 956 722 716 772 796 750 802 937 934 1087 1118 952 943 791 688 803 804 857 640 613 588 577 571 559 486 571 409 374 306 317 173 72 26 0 0 0 0 0 13 1 24 0 18 27 3 2 0 0 1 0 0 0 0 6 0 0 0 0 0 0 0 3
939 1414 1402 1141 836 955 790 579 587 563 540 535 988 991 1018 1140 774 669 644 647 914 706 502 560 550 455 464 579 626 664 776 845 938 868 698 743 582 456 545 578 704 819 748 655 560 720 518 494 387 328 366 399 281 208 57 52 0 0 0 0 0 29 9 1 0 16 50 2 0 0 0 14 7 0 0 0 0 1 0 0 0 0 0 0 0 0 0
1106 1234 983 831 599 568 608 648 810 656 478 599 662 680 734 814 1059 444 446 589 646 327 577 544 418 424 488 456 600 642 722 629 603 702 601 616 454 498 404 470 566 606 528 539 748 782 610 378 139 152 242 169 271 128 103 7 0 0 0 128 1 48 1 20 5 0 0 0 0 0 1 10 0 0 0 3 0 0 0 0 0 0 2 10 7 0 2
1498 940 544 585 569 488 487 522 794 858 523 519 528 524 437 528 298 306 393 301 306 554 369 404 442 535 529 424 424 523 468 559 669 548 650 734 476 468 608 433 482 533 613 585 435 332 140 360 269 241 376 309 114 219 15 140 33 141 33 0 0 0 1 15 0 0 0 0 0 4 14 2 0 1 0 0 0 0 0 0 0 0 0 10 10 1 0
1294 1096 976 807 482 987 576 799 1043 1025 646 640 414 440 359 332 361 404 414 338 333 288 284 399 636 522 347 390 640 820 870 762 826 669 880 1047 925 516 357 324 378 378 486 408 266 617 528 321 222 304 337 294 199 150 10 0 135 0 0 0 0 0 0 0 0 0 0 0 0 0 0 0 1 0 0 0 0 0 0 0 0 0 0 4 3 1 4
1151 1144 1095 1039 732 786 769 714 832 520 588 514 431 306 282 233 263 308 194 221 167 252 308 515 641 482 334 684 918 808 844 854 806 861 822 739 485 628 517 396 375 470 438 501 643 578 548 509 472 418 357 260 269 215 0 88 0 0 0 0 0 0 0 0 0 0 0 0 0 0 19 5 0 0 0 0 0 0 0 0 0 0 0 0 0 0 0
1168 1376 834 716 994 1008 1546 1893 1588 1390 1012 608 590 428 245 250 221 514 550 576 761 438 356 592 702 497 548 838 1032 912 1034 1305 1259 998 875 927 858 654 497 386 286 315 482 574 528 524 588 632 618 677 455 374 19 82 102 5 0 0 0 0 16 54 0 0 0 0 0 0 0 0 0 0 0 0 0 0 0 0 0 0 0 0 0 0 0 0 0
734 709 504 698 1050 1289 1790 1960 1589 1456 1249 720 800 610 540 894 1000 364 273 133 574 237 534 608 827 804 824 983 1123 1371 1287 1398 1322 1214 952 888 810 815 531 509 982 1047 691 706 578 575 643 609 746 824 709 370 367 338 28 0 0 0 0 0 0 0 1 0 0 0 0 0 0 0 0 0 0 0 0 0 0 0 0 0 0 0 0 0 0 0 0
421 662 766 779 1019 1209 1388 1247 941 805 932 762 743 1355 1195 980 360 593 644 618 463 834 719 1298 1352 1334 1397 1480 1341 1324 1270 1443 1220 1092 1073 1020 856 787 552 570 672 828 673 643 674 609 578 628 720 605 660 403 210 0 0 0 0 0 0 0 0 0 0 0 0 0 0 0 0 0 0 0 0 0 0 0 0 0 0 0 0 0 0 0 0 0 0
1315 1556 1195 728 386 1337 1366 1301 1482 1547 1422 863 1011 1207 1353 1064 397 457 1034 938 502 368 845 1755 1766 1711 1809 1524 1576 1308 1282 1165 1123 1180 1140 1119 965 821 704 770 656 670 778 782 525 540 754 728 556 646 79 263 8 0 0 0 0 0 0 0 0 0 0 0 0 0 0 0 0 0 0 0 0 0 0 0 0 0 0 0 0 0 0 0 0 0 0
988 826 1289 795 364 339 1197 1166 1257 1107 932 825 543 973 1295 956 730 728 992 1072 888 1434 1550 2020 1962 1629 1536 1495 1332 1158 1201 1163 1080 1158 1233 1205 1069 796 761 847 816 771 696 656 638 666 755 634 595 422 468 175 0 0 0 0 0 0 0 0 0 0 0 0 0 0 0 0 0 0 0 0 0 0 0 0 0 0 0 0 0 0 0 0 0 0 0
789 1128 1256 828 650 259 270 389 289 171 150 400 613 1066 997 665 511 754 1188 907 670 939 1630 2104 1938 1403 1465 1478 1344 1170 1171 1126 1272 1246 1206 1202 1166 1115 1011 878 851 806 730 671 602 781 802 486 17 0 6 0 0 0 0 0 0 0 0 0 0 0 0 0 0 0 0 0 0 0 0 0 0 0 0 0 0 0 0 0 0 0 0 0 0 0 0
1005 1621 1208 1084 1098 1450 1110 937 962 916 504 750 1834 936 574 682 665 917 943 470 636 1174 1696 1848 1671 1472 1243 1520 1134 1116 1365 1418 1308 1195 1214 1291 1182 1131 945 926 812 658 583 632 720 742 538 61 0 0 138 0 0 0 0 0 0 0 0 0 0 0 0 0 0 0 0 0 0 0 0 0 0 0 0 0 0 0 0 0 0 0 0 0 0 0 0
1750 1740 2058 1957 2266 1849 1652 1434 458 378 290 592 824 692 968 1412 1318 1168 880 976 1778 2090 2322 1792 1297 1587 1781 1472 1368 996 1178 1246 1078 1110 1182 1302 1165 1144 934 872 798 724 376 706 720 670 333 0 0 0 0 0 0 0 0 0 0 0 0 0 0 0 0 0 0 0 0 0 0 0 0 0 0 0 0 0 0 0 0 0 0 0 0 0 0 0 0
2088 2062 2266 2585 2333 2194 998 753 542 371 76 355 1148 1546 1795 1940 2014 1738 1844 2325 2333 2602 2339 1928 1839 1997 1716 1418 1194 1290 956 1056 1042 1032 1103 1154 1184 1062 1022 885 827 632 1024 954 592 646 1 11 78 1 4 0 0 0 0 2 0 7 14 0 0 0 0 0 0 0 0 0 0 0 0 0 0 0 0 0 0 0 0 0 0 0 0 0 0 0 0
2095 2195 2419 1851 1892 2187 2430 1281 1062 894 645 893 1432 2104 2777 2513 2350 2045 2394 2390 2762 2462 2209 2105 2011 1977 1742 1435 1222 1068 1270 1270 1255 1148 1135 1105 1127 962 825 777 787 912 911 662 803 507 6 19 10 44 248 4 0 18 192 0 1 0 0 1 0 0 0 0 0 0 0 0 0 0 0 0 0 0 0 0 0 0 0 0 0 0 0 0 0 0 0
2191 2342 2644 2572 2413 2363 1676 1809 2136 1858 2579 2774 2438 2828 2812 2678 2230 2435 2605 2600 2648 2266 2260 2204 2214 2136 1919 1594 1482 1300 1225 974 1194 1351 1326 1171 945 1038 674 1087 1222 1049 646 486 590 316 112 54 8 1 31 23 9 20 0 0 0 0 18 0 0 0 0 0 0 0 0 0 0 0 0 0 0 0 0 0 0 0 0 0 0 0 0 0 0 0 0
2436 2561 2178 1792 2018 2304 2224 3152 3042 3103 3052 2874 2583 2154 2077 1980 2240 2764 2865 2562 2486 2529 2548 2428 2277 2276 1951 1556 1370 1359 1113 1128 1157 1162 1171 1175 954 801 635 1430 1751 2336 1193 970 760 168 0 14 98 154 24 30 118 2 28 0 2 15 23 0 0 0 0 0 0 0 0 0 0 0 0 0 0 0 0 0 0 0 0 0 0 0 0 0 0 0 0
2162 1685 1550 1444 1304 1503 2600 3310 3189 2984 2752 2740 2606 2384 2216 2010 2809 2775 2617 2692 2556 2644 2669 2535 2484 2032 1820 1749 1701 1470 1284 1225 1089 1092 1030 920 878 1004 1176 1563 1715 1702 1236 1130 808 182 0 25 16 32 41 188 34 0 0 5 15 0 16 5 0 0 0 0 0 0 0 0 0 0 0 0 0 0 0 0 0 0 0 0 0 0 0 0 0 0 0
2157 2198 2082 1575 1195 1340 2543 3448 3126 3011 3075 2904 2926 2856 2774 2776 2760 2634 2774 2822 2731 2693 2567 2323 2049 1979 1833 1726 1429 1466 1467 1219 1217 1059 951 1204 1017 1329 1668 1628 1516 1551 1054 840 606 309 72 62 136 114 91 66 8 0 0 68 70 6 0 3 0 0 0 0 0 0 0 0 0 0 0 0 0 0 0 0 0 0 0 0 0 0 0 0 0 0 0
2386 2688 2317 2362 2164 2224 2588 3347 3321 3090 2938 2935 2859 2698 2684 2682 2508 2108 2236 2785 2779 2564 2369 2138 2059 1882 1689 1564 1649 1454 1658 1512 1465 1019 864 895 1061 1344 1301 1579 1584 1201 972 720 575 346 288 232 408 231 51 12 2 0 10 132 156 51 0 1 0 0 0 0 0 0 0 0 0 0 0 0 0 0 0 0 0 0 0 0 0 0 0 0 0 0 0
1740 1674 1907 2376 2451 2422 2431 3154 3277 3092 2811 2354 2190 2372 2435 2574 2467 2377 2512 2580 2631 2352 2315 2225 2156 1988 1884 1618 1690 1540 1274 1144 1091 1134 1436 830 856 1473 1225 1238 1323 1133 847 876 630 487 669 701 298 526 242 139 30 25 23 160 77 108 15 8 1 0 0 0 0 0 0 0 0 0 0 0 0 0 0 0 0 0 0 0 0 0 0 0 0 0 0
2312 2563 2812 2697 2362 2306 2304 3303 3280 2816 2354 2132 2070 2028 1957 2047 2266 2378 2707 2674 2430 2288 2226 2156 1989 1950 1792 1669 1600 1491 967 763 820 820 1328 1341 1522 1262 1210 1169 1085 1082 700 622 524 417 338 498 656 538 392 144 8 0 1 186 160 222 49 5 5 0 0 0 0 0 0 0 0 0 0 0 0 0 0 0 0 0 0 0 0 0 0 0 0 0 0
2316 2283 2124 2182 2388 2470 3074 3361 2677 2052 2098 2218 1958 1777 1358 1382 1747 1970 2220 2025 2038 2081 1737 1715 1867 1722 1711 1550 1562 1188 1343 666 545 575 738 888 1057 1068 804 788 700 1117 558 355 657 987 806 900 759 736 310 213 2 2 86 268 182 70 163 28 6 6 0 0 0 0 0 0 0 0 0 0 0 0 0 0 0 0 0 0 0 0 0 0 0 0 0
2125 2166 2038 2379 2852 2894 3285 2800 2086 1993 1827 1858 1989 1630 1278 1590 1802 1730 1915 2030 1841 1613 1480 1460 1427 1377 1276 1182 768 508 805 671 1291 556 687 612 679 688 486 1327 1321 1284 670 441 570 821 1290 726 614 1018 520 406 61 267 573 440 283 43 24 26 2 4 0 0 0 0 0 0 0 0 0 0 0 0 0 0 0 0 0 0 0 0 0 0 0 0 0
1916 2114 2442 2397 2865 2704 2486 1865 1544 1856 1877 1624 1625 1618 1658 1664 1434 1551 1614 1401 1241 1067 1062 1027 1003 1188 1008 450 356 556 1248 661 882 771 436 662 932 795 855 1202 1107 749 668 372 491 817 1530 860 878 1308 482 342 189 207 311 380 270 129 0 0 0 0 0 0 0 0 0 0 0 0 0 0 0 0 0 0 0 0 0 0 0 0 0 0 0 0 0
2355 2154 2333 2370 2289 2150 2109 1889 1854 2092 1694 1690 1852 1843 1708 1459 1413 1291 1162 941 723 707 748 698 666 560 490 176 440 522 585 586 514 307 348 536 1026 966 892 870 843 358 404 482 721 748 514 672 538 533 364 228 284 450 580 434 171 57 30 0 0 0 0 0 0 0 0 0 0 0 0 0 0 0 0 0 0 0 0 0 0 0 0 0 0 0 0
2240 1755 2224 1947 1502 1298 1784 1939 2053 1984 1793 1692 1570 1574 1171 1068 1034 885 674 606 456 340 350 519 460 337 222 97 294 325 97 343 446 237 340 392 550 801 757 794 397 102 359 460 522 826 409 346 304 465 499 500 504 496 473 276 272 90 35 400 57 0 0 0 0 0 0 0 0 0 0 0 0 0 0 0 0 0 0 0 0 0 0 0 0 0 0
Wind_Speed
nan nan nan nan nan nan nan nan nan nan nan nan nan nan nan nan nan nan 23 nan nan nan nan nan 36 29 26 19 16 19 20 14 9 10 11 9 7 2 1 3 6 4 5 7 7 8 7 11 13 11 10 12 12 13 14 14 16 16 17 16 17 16 15 14 15 18 19 17 18 19 20 21 21 21 22 22 23 24 24 25 25 26 26 26 26 25 25
nan nan nan nan nan nan nan nan nan nan nan nan nan nan nan nan nan nan nan 13 nan nan nan nan nan 25 nan 25 22 22 22 20 14 10 8 10 8 3 5 4 3 3 4 6 8 9 7 12 13 13 11 13 14 14 13 15 15 17 17 17 17 17 16 16 16 17 18 18 18 19 19 20 20 21 22 22 22 23 23 24 24 25 25 26 26 25 25
nan nan nan nan nan nan nan nan nan nan nan nan nan nan nan nan nan nan nan nan 37 43 48 51 37 24 24 34 41 36 27 23 20 12 8 11 9 9 7 3 4 4 5 6 8 10 9 12 14 13 13 13 15 15 14 15 16 17 17 18 18 18 17 16 17 17 18 18 18 18 18 20 20 20 21 22 22 22 23 23 24 25 25 25 25 25 25
nan nan nan nan nan nan nan nan nan nan nan nan nan nan nan nan nan nan nan nan 35 46 49 46 36 29 30 36 37 34 27 26 20 9 10 14 15 14 13 10 8 9 8 8 9 11 10 10 13 14 14 15 15 16 16 16 17 18 19 19 20 19 18 18 17 17 18 18 18 18 19 20 21 21 22 22 22 23 23 23 24 24 24 24 24 24 25
nan nan nan nan nan nan nan nan nan nan nan nan nan nan nan nan nan nan nan 33 42 45 52 48 40 39 39 39 36 33 29 29 28 16 15 19 15 15 17 15 12 11 10 8 8 10 11 10 12 14 15 15 16 17 18 19 19 20 20 20 21 21 21 19 17 18 20 19 19 19 20 21 21 22 22 23 23 23 22 23 24 24 24 24 24 24 25
nan nan nan nan nan nan nan nan nan nan nan nan nan nan nan nan nan 30 42 41 45 53 54 47 39 40 39 37 34 31 27 25 22 17 12 14 12 11 10 9 12 11 8 6 7 7 9 10 11 14 16 17 18 19 20 21 21 20 20 20 21 22 23 21 19 20 21 21 20 21 22 22 22 22 23 23 23 24 24 24 24 24 23 24 25 27 28
nan nan nan nan nan nan nan nan nan nan nan nan nan nan nan nan nan 43 53 52 49 52 46 38 32 33 36 34 32 32 30 30 25 20 14 10 13 11 10 10 10 9 9 11 11 12 14 14 15 16 18 19 18 18 19 20 19 20 19 20 22 23 24 23 21 22 22 21 21 22 23 23 23 23 24 24 24 24 25 24 25 25 25 26 28 29 30
nan nan nan nan nan nan nan nan nan nan nan nan nan nan nan 30 35 53 52 nan 43 39 38 32 29 29 28 29 31 31 32 32 29 21 13 12 13 9 9 10 10 11 16 13 16 16 16 16 15 17 18 20 20 18 18 18 18 18 20 23 25 24 24 24 23 24 22 23 23 23 23 23 24 24 24 25 24 25 25 25 26 26 27 29 nan nan nan
nan nan nan nan nan nan nan nan nan nan nan nan nan nan nan 41 44 49 53 52 46 39 34 32 28 29 29 25 25 35 33 34 34 25 17 14 9 8 8 13 11 12 14 12 12 12 15 17 17 20 25 25 19 15 14 17 17 20 23 25 28 28 27 25 25 24 24 24 23 23 24 24 24 24 24 25 25 26 26 26 26 27 nan nan nan nan 33
nan nan nan nan nan nan nan nan nan nan nan nan nan nan 35 nan nan nan nan 47 41 37 32 29 27 30 30 26 24 28 34 38 33 24 18 15 13 14 14 12 13 13 13 14 11 12 14 25 27 21 22 22 24 22 19 21 21 23 25 27 27 28 27 27 25 25 25 24 24 24 24 24 24 24 24 26 27 28 27 27 28 30 nan nan nan nan nan
nan nan nan nan nan 19 nan nan nan nan nan nan nan nan nan nan nan nan nan nan 41 31 27 28 27 26 26 25 23 26 26 23 25 26 24 23 19 13 12 13 14 13 13 12 9 10 19 25 23 27 27 26 27 26 24 22 18 25 26 27 28 28 27 26 25 26 25 25 24 24 24 24 24 24 26 27 27 28 29 30 nan nan nan nan nan nan nan
nan nan nan nan 22 22 nan nan nan nan nan nan nan nan nan nan nan nan nan nan 34 25 18 24 21 18 19 19 21 25 27 21 24 24 26 21 13 14 14 14 13 15 22 17 8 10 16 21 25 27 29 28 29 29 27 26 23 27 28 29 28 27 26 27 27 26 26 25 25 25 24 25 25 27 27 27 28 29 31 nan nan nan nan nan nan nan nan
nan nan nan nan nan 25 30 27 nan nan nan nan nan 17 24 nan nan nan nan nan 27 23 19 18 16 13 15 22 23 21 20 18 19 20 27 23 17 15 15 15 15 18 24 27 26 28 24 26 28 31 33 33 33 33 31 28 28 29 30 30 30 28 26 26 26 26 26 26 26 25 26 26 27 27 28 28 30 nan nan 35 nan nan 34 34 33 34 35
nan nan nan nan 22 24 nan nan nan nan nan nan nan 24 22 25 nan nan 29 28 24 22 22 19 15 18 18 23 24 22 18 14 15 20 26 26 25 24 21 17 14 15 17 21 24 25 23 21 25 28 32 33 32 35 33 33 33 32 31 30 30 29 27 27 27 27 27 27 27 27 28 28 28 28 30 nan nan nan 35 35 34 34 33 34 34 35 36
nan nan nan 16 nan 22 nan nan 28 nan nan 28 27 25 31 27 nan 24 21 17 17 16 17 17 24 21 22 28 26 23 20 18 15 16 23 22 21 20 18 18 15 17 20 21 21 22 21 23 24 27 32 31 29 29 31 33 33 32 32 31 30 30 29 29 29 27 29 28 29 nan nan 28 30 nan 33 34 nan 36 35 35 34 34 34 34 34 35 35
29 25 nan 23 nan 25 nan nan 25 32 33 32 31 31 33 29 20 16 14 15 15 14 14 19 23 25 26 23 19 19 21 24 21 20 19 19 20 19 18 20 20 20 23 19 14 21 27 26 29 29 31 29 29 30 30 30 33 32 32 31 31 31 31 31 29 30 30 31 nan 30 30 31 nan nan 35 36 36 35 36 34 34 34 34 35 35 35 35
31 31 30 25 28 25 20 22 31 33 31 30 27 31 34 25 15 10 10 14 19 20 21 21 22 27 31 27 22 20 22 23 22 20 18 18 20 21 21 21 23 21 17 21 25 28 29 30 30 29 29 31 31 31 29 29 29 30 31 31 30 30 30 30 30 nan nan nan 31 nan nan nan nan nan 35 nan 33 34 35 34 34 34 34 nan nan nan nan
37 29 33 40 33 28 22 24 28 29 23 20 21 20 20 10 7 7 11 15 21 26 26 24 23 27 30 30 27 26 24 24 23 21 19 20 24 24 21 22 28 28 28 30 33 33 32 32 30 29 30 30 31 30 30 31 31 31 31 30 30 30 29 nan 29 nan nan nan nan nan nan nan 35 36 nan nan nan 32 33 33 34 34 nan nan nan nan nan
38 37 43 36 26 34 28 26 26 24 22 16 13 14 12 9 7 11 17 18 27 31 30 30 26 23 22 25 27 27 25 25 24 23 23 22 25 30 31 34 37 35 34 33 34 33 32 31 31 30 30 28 29 29 30 32 33 30 29 29 29 nan nan nan nan nan nan nan nan nan nan nan nan nan nan nan nan nan nan nan nan nan nan nan nan nan nan
34 36 40 33 14 10 19 20 21 21 27 37 28 17 15 19 18 19 19 19 26 29 28 28 29 27 24 25 24 25 26 28 27 29 30 34 31 32 34 34 33 32 32 32 33 32 30 29 30 30 30 30 29 29 29 29 30 29 30 nan nan nan nan nan nan nan nan nan nan nan nan nan nan nan nan nan nan nan nan nan nan nan nan nan nan nan nan
37 27 31 36 22 14 18 20 25 27 26 29 27 24 23 25 25 25 14 18 23 25 26 24 32 31 27 27 27 28 25 27 29 31 31 31 30 29 31 30 28 27 28 30 31 31 30 29 30 30 31 31 31 32 31 30 29 29 nan nan nan nan nan nan nan nan nan nan nan nan nan nan nan 30 35 nan nan nan nan nan nan nan nan nan nan nan nan
33 33 34 31 30 25 24 33 39 37 34 32 23 24 20 13 14 6 14 20 18 23 25 27 27 30 29 27 30 31 29 30 29 29 29 29 30 29 29 28 29 29 28 30 31 31 31 31 31 31 31 31 30 30 30 29 29 29 29 nan nan nan nan nan nan nan nan nan nan nan nan nan nan nan nan nan nan nan nan nan nan nan nan nan nan nan nan
32 33 34 36 37 34 39 36 36 34 23 20 7 11 14 8 21 25 27 21 23 24 28 26 26 27 27 30 31 31 29 28 27 27 27 27 26 28 29 29 28 28 29 31 32 33 32 31 32 31 31 31 30 31 31 30 29 31 30 30 nan nan nan nan nan nan nan nan nan nan nan nan nan nan nan nan nan nan nan nan nan nan nan nan nan nan nan
28 34 41 39 41 42 38 34 32 33 28 29 20 13 17 25 25 26 32 33 30 23 25 28 24 26 29 31 31 31 30 29 28 28 28 28 28 27 27 28 29 30 31 32 33 34 32 32 32 31 30 28 28 34 32 32 29 32 nan nan nan nan nan nan nan nan nan nan nan nan nan nan nan nan nan nan nan nan nan nan nan nan nan nan nan nan nan
33 36 34 34 37 37 36 30 29 29 28 25 23 26 30 32 31 32 32 29 32 28 27 27 23 25 30 33 32 30 29 28 27 28 28 28 28 28 29 30 31 31 31 31 32 32 32 32 32 31 31 29 28 33 32 32 nan nan nan nan nan nan nan nan nan nan nan nan nan nan nan nan nan nan nan nan nan nan nan nan nan nan nan nan nan nan nan
37 37 36 34 35 37 34 28 32 32 31 30 31 32 33 36 37 36 36 31 25 28 28 26 25 25 29 31 30 30 29 28 28 27 27 28 29 29 31 32 32 31 31 31 30 31 32 33 32 32 32 34 33 32 nan nan nan nan nan nan nan nan nan nan nan nan nan nan nan nan nan nan nan nan nan nan nan nan nan nan nan nan nan nan nan nan nan
39 38 41 37 36 33 29 29 30 27 29 32 34 32 33 32 35 37 32 35 34 31 25 26 24 25 27 29 30 29 28 28 28 27 28 29 31 31 32 32 32 32 32 31 30 31 33 32 31 31 31 31 31 32 31 nan nan nan nan 27 nan nan nan nan nan nan nan nan nan nan nan nan nan nan nan nan nan nan nan nan nan nan nan nan nan nan nan
41 40 37 38 33 27 24 25 27 30 30 32 33 31 35 36 36 35 38 41 42 35 27 24 23 24 26 27 28 28 29 29 28 29 29 29 30 31 32 32 32 33 32 31 31 31 30 29 29 33 35 34 31 30 nan 27 nan 28 nan nan nan nan nan nan nan nan nan nan nan nan nan nan nan nan nan nan nan nan nan nan nan nan nan nan nan nan nan
36 39 43 42 38 38 33 33 31 29 29 30 32 32 35 35 36 36 42 41 41 37 28 25 22 22 24 26 25 27 28 28 29 30 29 28 30 30 30 30 30 33 32 32 31 30 29 29 27 31 32 31 31 27 nan nan 24 nan nan nan nan nan nan nan nan nan nan nan nan nan nan nan nan nan nan nan nan nan nan nan nan nan nan nan nan nan nan
27 27 31 37 38 32 31 29 30 29 32 32 31 31 34 34 35 35 36 38 38 31 29 26 22 21 24 26 26 27 29 30 30 29 29 29 30 28 28 27 31 33 31 31 30 30 30 30 29 29 29 29 29 28 nan nan nan nan nan nan nan nan nan nan nan nan nan nan nan nan nan nan nan nan nan nan nan nan nan nan nan nan nan nan nan nan nan
20 25 29 32 34 32 29 30 34 35 33 30 29 27 31 29 34 33 35 34 27 28 27 23 21 22 25 26 26 28 29 28 28 29 29 29 28 28 29 27 30 28 30 32 31 31 30 29 29 29 27 27 nan nan 20 nan nan nan nan nan nan nan nan nan nan nan nan nan nan nan nan nan nan nan nan nan nan nan nan nan nan nan nan nan nan nan nan
22 18 22 28 28 28 29 30 31 32 30 28 26 23 31 32 31 36 38 30 26 26 24 23 22 24 25 26 27 28 28 27 28 28 29 29 29 29 28 28 28 30 33 32 31 31 30 28 29 28 28 26 23 20 nan nan nan nan nan nan nan nan nan nan nan nan nan nan nan nan nan nan nan nan nan nan nan nan nan nan nan nan nan nan nan nan nan
27 29 28 25 25 29 29 29 29 28 26 25 27 30 32 31 33 29 33 29 26 22 21 22 23 25 25 26 28 28 28 27 29 30 30 30 30 30 29 29 31 31 31 31 30 29 29 28 28 27 26 24 20 nan nan nan nan nan nan nan nan nan nan nan nan nan nan nan nan nan nan nan nan nan nan nan nan nan nan nan nan nan nan nan nan nan nan
24 25 24 21 24 27 27 25 23 23 22 22 26 31 35 32 32 19 21 24 20 19 19 22 24 25 25 26 26 27 28 29 29 28 29 29 30 30 30 31 31 31 30 29 28 27 28 28 26 26 nan 19 nan nan nan nan nan nan nan nan nan nan nan nan nan nan nan nan nan nan nan nan nan nan nan nan nan nan nan nan nan nan nan nan nan nan nan
24 22 18 21 27 26 26 23 21 21 20 21 25 32 35 35 28 15 12 16 15 18 21 23 24 24 25 26 26 27 27 28 29 29 29 29 30 30 29 30 29 28 26 25 26 26 26 26 23 23 21 20 nan nan nan nan nan nan nan nan nan nan nan nan nan nan nan nan nan nan nan nan nan nan nan nan nan nan nan nan nan nan nan nan nan nan nan
24 21 19 22 24 23 22 18 20 20 18 19 23 29 30 30 18 3 8 12 15 18 20 21 22 23 24 24 24 26 25 27 28 29 29 28 28 27 27 27 27 26 25 25 25 25 25 24 nan nan nan nan nan nan nan nan nan nan nan nan nan nan nan nan nan nan nan nan nan nan nan nan nan nan nan nan nan nan nan nan nan nan nan nan nan nan nan
23 21 21 24 24 23 22 19 13 10 13 13 17 21 22 18 9 9 15 14 16 17 21 21 19 22 23 21 23 24 24 26 28 27 27 26 26 26 26 26 25 25 24 25 24 24 24 nan nan nan 12 nan nan nan nan nan nan nan nan nan nan nan nan nan nan nan nan nan nan nan nan nan nan nan nan nan nan nan nan nan nan nan nan nan nan nan nan
22 21 22 24 24 23 18 14 13 15 14 20 18 12 10 9 13 15 13 14 21 23 22 20 20 21 21 21 22 25 26 27 27 27 26 26 26 27 26 25 24 23 22 25 24 23 21 nan nan nan nan nan nan nan nan nan nan nan nan nan nan nan nan nan nan nan nan nan nan nan nan nan nan nan nan nan nan nan nan nan nan nan nan nan nan nan nan
17 20 21 24 27 24 20 22 16 15 nan 18 17 11 9 11 14 15 14 20 23 24 21 18 19 22 23 22 23 25 26 26 26 26 26 26 26 25 25 24 22 21 24 25 24 21 nan nan nan nan nan nan nan nan nan nan nan nan nan nan nan nan nan nan nan nan nan nan nan nan nan nan nan nan nan nan nan nan nan nan nan nan nan nan nan nan nan
13 15 18 23 24 23 20 18 19 21 21 19 16 16 14 15 15 15 17 20 22 23 20 19 19 22 23 23 24 25 25 25 26 27 27 26 25 24 24 23 23 23 23 23 20 19 nan nan nan nan 12 nan nan nan 17 nan nan nan nan nan nan nan nan nan nan nan nan nan nan nan nan nan nan nan nan nan nan nan nan nan nan nan nan nan nan nan nan
13 16 18 18 19 22 18 18 21 23 24 22 19 18 15 14 16 18 20 21 22 21 20 21 22 23 23 24 25 25 25 25 26 27 26 25 24 22 22 23 22 22 21 18 17 17 16 nan nan nan nan nan nan nan nan nan nan nan nan nan nan nan nan nan nan nan nan nan nan nan nan nan nan nan nan nan nan nan nan nan nan nan nan nan nan nan nan
16 16 15 17 18 16 15 19 23 24 22 20 19 18 16 15 18 21 21 21 20 20 21 22 23 23 23 23 25 25 24 26 26 26 25 24 23 20 22 23 20 17 16 17 19 17 nan nan nan 11 nan nan 17 nan nan nan nan nan nan nan nan nan nan nan nan nan nan nan nan nan nan nan nan nan nan nan nan nan nan nan nan nan nan nan nan nan nan
18 15 15 17 19 19 14 19 19 20 20 19 19 18 17 19 23 22 21 21 21 21 22 23 24 24 23 23 24 24 24 25 25 26 23 22 20 17 21 23 20 15 14 17 15 14 nan nan nan nan nan 17 nan nan nan nan nan nan nan nan nan nan nan nan nan nan nan nan nan nan nan nan nan nan nan nan nan nan nan nan nan nan nan nan nan nan nan
15 15 17 16 17 13 12 16 16 18 19 20 20 21 21 21 21 21 20 20 20 20 22 23 23 23 23 23 23 23 24 24 25 24 22 21 21 22 23 21 18 16 16 14 13 12 nan nan 12 18 nan nan nan nan nan nan nan nan nan nan nan nan nan nan nan nan nan nan nan nan nan nan nan nan nan nan nan nan nan nan nan nan nan nan nan nan nan
16 20 17 19 20 16 11 15 16 18 20 21 22 21 21 22 21 21 20 18 19 20 21 21 21 22 22 22 22 23 23 23 23 22 21 21 20 20 18 19 17 16 14 14 12 11 10 11 18 22 nan nan nan nan nan 10 12 nan nan nan nan nan nan nan nan nan nan nan nan nan nan nan nan nan nan nan nan nan nan nan nan nan nan nan nan nan nan
19 17 17 19 18 19 14 15 18 21 22 23 22 22 20 21 21 20 19 19 20 20 20 21 21 21 21 22 22 23 23 23 21 20 17 18 18 21 19 17 15 14 15 14 10 10 13 21 21 20 22 21 nan nan nan 11 nan 13 nan nan nan nan nan nan nan nan nan nan nan nan nan nan nan nan nan nan nan nan nan nan nan nan nan nan nan nan nan
19 18 17 17 17 16 13 16 20 22 23 23 22 21 21 21 20 19 18 19 21 21 21 21 21 20 21 22 23 23 22 21 21 21 22 21 21 21 19 18 16 17 16 12 10 12 17 16 18 21 21 19 nan nan nan 11 13 12 nan nan nan nan nan nan nan nan nan nan nan nan nan nan nan nan nan nan nan nan nan nan nan nan nan nan nan nan nan
18 17 18 17 17 16 17 18 18 21 21 21 22 20 21 21 19 16 17 20 21 22 21 21 20 20 21 22 22 20 18 20 21 20 19 19 19 17 16 15 16 18 16 12 14 16 22 20 20 19 19 16 nan nan nan 10 12 nan 11 nan nan nan nan nan nan nan nan nan nan nan nan nan nan nan nan nan nan nan nan nan nan nan nan nan nan nan nan
19 19 19 17 15 16 17 16 18 20 21 22 22 21 21 21 20 18 20 21 22 21 20 20 21 21 21 22 20 19 20 18 17 19 18 17 18 16 16 20 21 18 13 11 15 15 19 21 20 19 18 13 nan 9 11 11 11 nan nan nan nan nan nan nan nan nan nan nan nan nan nan nan nan nan nan nan nan nan nan nan nan nan nan nan nan nan nan
20 20 18 16 14 14 14 15 17 20 21 21 21 21 21 21 21 20 20 20 19 20 20 20 20 20 21 20 18 20 21 19 20 19 16 15 16 17 19 18 16 14 12 11 13 15 17 20 19 18 15 11 10 10 12 13 13 13 nan nan nan nan nan nan nan nan nan nan nan nan nan nan nan nan nan nan nan nan nan nan nan nan nan nan nan nan nan
19 17 15 14 13 13 13 16 19 20 20 21 21 20 18 18 20 19 19 19 19 18 19 19 20 20 20 19 19 21 20 18 17 15 15 16 17 17 17 15 14 13 9 8 14 15 14 14 15 15 13 10 8 10 11 12 11 nan nan nan nan nan nan nan nan nan nan nan nan nan nan nan nan nan nan nan nan nan nan nan nan nan nan nan nan nan nan
13 15 15 14 14 15 17 20 21 20 20 19 17 16 15 17 19 18 18 17 17 17 18 20 20 18 18 nan 19 19 nan 16 16 13 13 14 15 16 15 15 14 12 11 10 14 15 13 13 14 14 13 10 9 7 8 11 11 nan nan 7 nan nan nan nan nan nan nan nan nan nan nan nan nan nan nan nan nan nan nan nan nan nan nan nan nan nan nan
Wind_Direction
nan nan nan nan nan nan nan nan nan nan nan nan nan nan nan nan nan nan 252 nan nan nan nan nan 293 294 295 300 291 293 306 311 301 314 330 316 295 253 102 220 245 258 287 270 289 303 304 299 305 308 304 299 293 291 295 289 293 294 295 293 292 294 293 293 293 293 292 292 297 297 295 292 291 292 292 294 294 295 296 295 294 294 294 294 294 295 294
nan nan nan nan nan nan nan nan nan nan nan nan nan nan nan nan nan nan nan 310 nan nan nan nan nan 282 nan 275 286 282 283 282 286 305 322 302 284 325 18 340 304 277 289 278 299 310 313 308 310 311 306 300 299 300 299 299 299 298 296 300 299 299 301 301 301 299 297 298 295 295 295 293 295 296 298 297 296 296 296 294 294 294 294 294 295 294 293
nan nan nan nan nan nan nan nan nan nan nan nan nan nan nan nan nan nan nan nan 263 259 258 265 271 275 278 258 254 254 254 281 296 297 315 323 349 5 357 42 337 293 292 297 301 313 319 310 313 307 302 300 300 304 303 303 302 300 301 302 303 304 306 308 308 306 303 304 301 300 297 299 301 301 301 300 299 297 295 295 295 294 295 296 296 294 292
nan nan nan nan nan nan nan nan nan nan nan nan nan nan nan nan nan nan nan nan 262 260 267 268 268 275 279 275 276 278 287 286 267 267 350 358 359 359 349 5 349 339 340 330 321 324 321 310 310 305 304 305 306 309 309 309 306 304 306 306 309 309 312 314 316 313 310 308 308 304 302 304 305 304 302 301 300 298 297 295 296 294 293 291 290 291 294
nan nan nan nan nan nan nan nan nan nan nan nan nan nan nan nan nan nan nan 249 255 259 262 264 264 267 270 273 277 284 298 310 312 327 357 357 4 352 350 350 343 345 345 339 331 329 326 319 311 317 315 313 316 314 315 312 307 309 312 312 313 315 317 318 318 318 316 314 310 308 307 306 305 304 302 301 300 298 297 295 293 294 292 292 294 296 298
nan nan nan nan nan nan nan nan nan nan nan nan nan nan nan nan nan 240 257 257 255 256 260 264 268 269 271 278 290 295 301 308 305 289 299 337 343 346 347 331 338 341 332 340 351 340 324 322 321 319 322 322 318 314 312 307 309 310 313 317 317 317 318 321 324 321 317 314 313 313 311 310 309 306 304 301 300 300 298 296 294 294 295 297 297 297 296
nan nan nan nan nan nan nan nan nan nan nan nan nan nan nan nan nan 260 257 251 251 254 256 261 267 271 278 285 292 292 291 290 297 308 320 336 345 348 340 316 330 343 352 356 2 356 349 340 327 322 319 314 306 303 302 303 305 310 316 318 312 319 323 325 326 321 320 316 314 312 312 311 308 306 304 302 301 299 298 297 296 295 295 296 298 298 297
nan nan nan nan nan nan nan nan nan nan nan nan nan nan nan 205 235 260 260 nan 264 261 260 265 264 267 268 285 293 290 289 293 295 298 314 340 332 343 330 326 342 355 358 357 9 356 347 332 319 311 305 297 294 287 289 292 301 312 317 313 315 321 327 326 326 325 322 318 315 314 313 311 308 305 304 303 301 298 297 297 298 298 298 299 nan nan nan
nan nan nan nan nan nan nan nan nan nan nan nan nan nan nan 234 235 243 252 260 265 266 270 283 292 283 279 273 283 294 294 302 312 320 331 323 332 346 346 351 354 336 333 328 332 336 337 328 298 262 249 247 246 255 285 292 308 319 319 318 320 326 325 327 327 326 321 318 317 316 312 308 305 303 302 300 298 296 297 297 297 299 nan nan nan nan 302
nan nan nan nan nan nan nan nan nan nan nan nan nan nan 240 nan nan nan nan 256 267 271 282 289 287 287 281 286 284 283 299 315 318 328 328 325 358 10 11 317 310 319 323 305 306 297 296 269 270 296 302 306 304 307 317 317 322 325 323 320 323 325 326 327 327 321 320 320 318 313 308 305 302 301 299 299 297 296 298 299 301 300 nan nan nan nan nan
nan nan nan nan nan 223 nan nan nan nan nan nan nan nan nan nan nan nan nan nan 269 274 283 290 287 285 288 296 302 298 298 316 324 324 325 337 355 339 302 307 315 330 293 269 249 251 263 280 313 310 317 321 312 311 308 304 324 325 327 323 324 325 324 322 320 321 324 321 315 309 305 303 303 302 300 298 300 302 303 302 nan nan nan nan nan nan nan
nan nan nan nan 228 234 nan nan nan nan nan nan nan nan nan nan nan nan nan nan 273 283 292 292 297 294 294 304 310 315 307 317 305 323 321 331 332 307 296 298 300 291 283 285 297 297 297 318 306 312 310 316 314 313 314 321 325 328 330 326 325 323 324 326 326 324 319 313 307 305 304 305 305 303 301 304 304 303 305 nan nan nan nan nan nan nan nan
nan nan nan nan nan 238 220 195 nan nan nan nan nan 218 221 nan nan nan nan nan 279 299 301 300 299 305 281 296 315 326 320 317 311 302 297 316 314 295 290 290 305 306 308 316 325 321 324 326 325 321 321 320 318 315 319 327 327 325 325 323 322 323 327 324 322 318 310 306 305 306 308 307 304 305 306 306 307 nan nan 306 nan nan 307 307 308 308 307
nan nan nan nan 231 231 nan nan nan nan nan nan nan 221 213 217 nan nan 254 273 294 311 315 310 288 285 302 308 320 319 328 322 300 302 297 294 289 280 272 271 277 291 293 295 296 296 300 310 318 324 320 316 320 325 327 325 322 322 321 322 322 324 324 320 314 312 308 308 310 309 308 307 309 310 310 nan nan nan 308 309 309 307 308 309 309 309 308
nan nan nan 239 nan 247 nan nan 240 nan nan 220 217 220 230 224 nan 256 267 281 292 312 310 302 289 301 314 312 316 312 320 313 314 308 290 295 295 286 286 286 284 293 290 292 301 296 310 327 326 316 312 314 321 322 319 319 319 320 321 321 320 318 317 315 313 313 311 312 310 nan nan 313 314 nan 314 314 nan 312 312 311 311 311 310 310 310 310 309
197 199 nan 219 nan 249 nan nan 245 240 229 226 219 215 220 227 237 252 265 278 290 285 285 295 300 300 300 303 305 301 290 277 273 270 276 289 296 295 293 284 281 277 279 281 297 329 329 319 311 313 315 319 315 311 312 318 320 320 317 315 317 318 317 315 317 316 313 312 nan 317 317 315 nan nan 316 315 314 314 312 311 312 312 312 311 311 310 308
206 208 208 210 193 229 239 251 253 253 243 233 227 215 214 206 215 210 262 277 283 288 288 288 294 297 294 298 298 292 290 290 288 286 285 289 287 276 267 273 276 277 300 331 334 319 312 315 310 310 311 310 310 310 312 312 310 312 313 313 313 311 312 313 316 nan nan nan 317 nan nan nan nan nan 315 nan 311 311 309 311 310 311 310 nan nan nan nan
210 206 217 216 190 210 223 240 241 240 245 229 210 230 234 204 191 213 240 257 265 270 270 271 275 282 290 294 299 301 302 300 301 301 300 295 287 284 291 303 315 327 338 334 322 316 315 310 310 308 311 310 310 312 311 310 309 309 309 309 311 309 313 nan 317 nan nan nan nan nan nan nan 314 310 nan nan nan 308 311 310 310 311 nan nan nan nan nan
211 220 219 229 192 173 206 225 223 218 218 226 202 208 223 241 232 226 236 245 260 267 272 276 279 277 286 296 303 303 303 303 305 306 303 300 305 323 333 329 326 325 326 318 312 311 310 308 308 308 305 307 309 314 313 309 304 304 305 309 309 nan nan nan nan nan nan nan nan nan nan nan nan nan nan nan nan nan nan nan nan nan nan nan nan nan nan
209 209 217 235 228 183 198 205 209 209 211 209 188 219 215 222 216 235 237 251 266 268 273 284 291 300 306 303 299 298 302 308 314 314 318 319 326 325 318 315 318 318 316 312 309 308 304 303 304 305 305 304 302 298 294 294 297 301 301 nan nan nan nan nan nan nan nan nan nan nan nan nan nan nan nan nan nan nan nan nan nan nan nan nan nan nan nan
206 204 224 233 243 216 218 224 226 228 223 228 190 201 217 219 215 204 226 252 264 275 291 301 305 307 307 304 302 303 311 311 313 316 315 315 314 310 307 305 305 305 305 303 301 301 300 301 302 302 302 303 301 298 295 295 295 296 nan nan nan nan nan nan nan nan nan nan nan nan nan nan nan 309 307 nan nan nan nan nan nan nan nan nan nan nan nan
208 218 232 235 235 229 224 225 229 218 220 223 194 180 214 240 260 254 230 258 271 289 290 294 299 304 306 310 310 311 311 311 313 312 312 310 309 305 302 303 302 301 300 299 298 297 299 301 300 299 297 297 296 294 295 296 297 298 298 nan nan nan nan nan nan nan nan nan nan nan nan nan nan nan nan nan nan nan nan nan nan nan nan nan nan nan nan
210 217 226 225 225 219 221 224 236 246 248 252 237 281 292 281 273 293 295 278 262 279 291 293 298 303 304 305 304 305 307 309 309 306 305 305 303 301 302 301 299 298 297 297 296 297 298 299 300 299 298 297 298 297 297 297 297 299 297 298 nan nan nan nan nan nan nan nan nan nan nan nan nan nan nan nan nan nan nan nan nan nan nan nan nan nan nan
204 215 227 217 224 224 226 227 235 243 236 244 249 239 243 251 260 256 264 278 287 290 288 291 302 306 303 301 300 301 303 303 301 299 297 296 296 296 297 297 297 297 298 296 298 298 298 298 299 299 298 300 304 300 298 297 298 298 nan nan nan nan nan nan nan nan nan nan nan nan nan nan nan nan nan nan nan nan nan nan nan nan nan nan nan nan nan
209 217 228 221 220 226 237 237 243 251 253 254 237 225 243 261 259 265 271 274 283 288 297 300 310 303 294 292 294 297 298 298 295 294 293 292 294 296 295 296 297 297 297 298 298 300 300 301 300 301 301 297 294 295 298 297 nan nan nan nan nan nan nan nan nan nan nan nan nan nan nan nan nan nan nan nan nan nan nan nan nan nan nan nan nan nan nan
208 222 225 225 220 230 230 225 230 235 245 254 253 255 257 264 268 269 273 276 277 284 289 294 293 286 282 283 287 292 293 293 294 293 293 294 295 297 298 296 296 296 297 298 301 301 301 301 303 303 306 308 306 300 nan nan nan nan nan nan nan nan nan nan nan nan nan nan nan nan nan nan nan nan nan nan nan nan nan nan nan nan nan nan nan nan nan
215 221 225 225 229 225 228 233 231 240 252 254 256 261 263 264 274 276 281 285 285 278 273 276 276 276 275 281 286 291 294 295 294 294 295 297 298 297 298 298 297 298 299 298 297 296 298 300 300 300 294 292 295 300 305 nan nan nan nan 313 nan nan nan nan nan nan nan nan nan nan nan nan nan nan nan nan nan nan nan nan nan nan nan nan nan nan nan
220 220 226 228 231 236 232 238 246 243 253 263 267 267 267 268 269 276 282 280 276 270 269 272 278 280 283 288 292 294 294 295 294 296 296 295 296 295 294 297 300 299 296 297 297 299 302 305 308 305 304 302 303 306 nan 312 nan 314 nan nan nan nan nan nan nan nan nan nan nan nan nan nan nan nan nan nan nan nan nan nan nan nan nan nan nan nan nan
221 222 223 225 233 240 234 238 245 251 258 260 262 269 272 272 274 275 273 274 277 281 282 286 286 287 290 292 293 291 291 294 294 292 290 288 287 289 294 298 300 296 297 300 300 301 300 299 299 297 301 300 301 299 nan nan 301 nan nan nan nan nan nan nan nan nan nan nan nan nan nan nan nan nan nan nan nan nan nan nan nan nan nan nan nan nan nan
218 225 230 240 250 249 251 252 250 260 265 265 269 272 275 274 277 280 283 282 279 285 286 284 286 288 289 288 289 292 294 293 291 291 291 290 290 293 297 300 296 296 300 300 300 301 300 300 298 298 299 302 306 307 nan nan nan nan nan nan nan nan nan nan nan nan nan nan nan nan nan nan nan nan nan nan nan nan nan nan nan nan nan nan nan nan nan
240 240 243 247 253 259 260 257 253 252 256 265 273 273 282 285 282 278 276 271 268 276 281 281 282 286 287 287 290 291 291 291 293 293 291 290 293 295 296 298 299 306 303 301 302 301 300 301 301 301 301 297 nan nan 304 nan nan nan nan nan nan nan nan nan nan nan nan nan nan nan nan nan nan nan nan nan nan nan nan nan nan nan nan nan nan nan nan
259 257 263 254 253 262 262 258 257 258 258 252 250 258 258 252 253 277 278 281 278 281 281 284 283 285 287 290 290 290 293 295 295 293 293 295 296 297 299 297 288 288 293 298 300 300 300 300 301 300 301 302 309 313 nan nan nan nan nan nan nan nan nan nan nan nan nan nan nan nan nan nan nan nan nan nan nan nan nan nan nan nan nan nan nan nan nan
258 258 249 260 263 259 256 257 263 266 266 266 259 258 255 256 250 250 266 261 268 269 276 275 277 282 287 289 291 294 296 295 294 295 296 296 297 297 298 296 296 297 298 298 297 298 300 300 300 302 302 304 302 nan nan nan nan nan nan nan nan nan nan nan nan nan nan nan nan nan nan nan nan nan nan nan nan nan nan nan nan nan nan nan nan nan nan
253 251 260 267 264 267 269 267 262 264 267 269 267 260 257 254 260 233 234 250 265 275 272 275 280 285 288 292 294 296 298 298 298 299 298 298 298 298 298 298 299 299 298 299 301 300 300 299 301 300 nan 298 nan nan nan nan nan nan nan nan nan nan nan nan nan nan nan nan nan nan nan nan nan nan nan nan nan nan nan nan nan nan nan nan nan nan nan
260 257 244 262 270 274 276 282 281 279 280 279 272 261 256 253 243 221 231 262 273 265 271 275 282 290 294 296 298 299 299 299 300 300 300 299 300 300 300 299 300 300 300 299 297 298 299 298 298 299 305 298 nan nan nan nan nan nan nan nan nan nan nan nan nan nan nan nan nan nan nan nan nan nan nan nan nan nan nan nan nan nan nan nan nan nan nan
266 262 256 247 255 266 273 266 272 287 288 278 268 262 262 262 261 221 271 276 275 278 274 278 289 294 295 296 298 301 302 299 299 299 302 302 303 302 303 304 305 305 303 302 301 302 304 299 nan nan nan nan nan nan nan nan nan nan nan nan nan nan nan nan nan nan nan nan nan nan nan nan nan nan nan nan nan nan nan nan nan nan nan nan nan nan nan
263 261 253 252 251 249 254 255 252 266 291 288 276 265 262 267 278 281 277 285 287 284 285 290 294 296 299 301 301 302 299 297 297 301 303 304 304 304 306 306 307 307 308 307 308 310 304 nan nan nan 309 nan nan nan nan nan nan nan nan nan nan nan nan nan nan nan nan nan nan nan nan nan nan nan nan nan nan nan nan nan nan nan nan nan nan nan nan
250 250 253 251 248 241 236 259 259 244 261 268 251 240 253 259 278 277 284 280 278 282 290 300 303 296 296 297 299 301 298 297 302 303 304 305 305 306 307 308 309 310 312 306 312 308 302 nan nan nan nan nan nan nan nan nan nan nan nan nan nan nan nan nan nan nan nan nan nan nan nan nan nan nan nan nan nan nan nan nan nan nan nan nan nan nan nan
251 243 243 244 246 236 236 251 250 245 nan 260 278 276 272 279 276 282 274 271 279 285 295 298 294 295 301 305 302 299 299 302 305 305 304 305 305 308 307 309 310 308 302 310 311 304 nan nan nan nan nan nan nan nan nan nan nan nan nan nan nan nan nan nan nan nan nan nan nan nan nan nan nan nan nan nan nan nan nan nan nan nan nan nan nan nan nan
256 246 241 241 240 238 235 246 250 250 251 256 258 269 275 276 279 279 274 281 283 290 293 294 294 298 303 303 300 300 301 303 302 302 303 303 304 307 306 305 303 304 309 311 306 304 nan nan nan nan 315 nan nan nan 320 nan nan nan nan nan nan nan nan nan nan nan nan nan nan nan nan nan nan nan nan nan nan nan nan nan nan nan nan nan nan nan nan
252 242 235 231 230 231 232 240 242 242 245 251 260 263 269 270 275 274 276 280 283 290 292 294 294 297 301 301 300 300 304 303 300 299 299 302 305 309 312 307 307 309 314 316 307 302 312 nan nan nan nan nan nan nan nan nan nan nan nan nan nan nan nan nan nan nan nan nan nan nan nan nan nan nan nan nan nan nan nan nan nan nan nan nan nan nan nan
246 244 238 228 219 221 232 238 240 240 243 250 258 264 268 272 270 271 276 278 282 284 285 289 294 296 298 297 299 302 303 300 298 298 299 302 305 312 308 305 308 308 314 306 298 302 nan nan nan 327 nan nan 314 nan nan nan nan nan nan nan nan nan nan nan nan nan nan nan nan nan nan nan nan nan nan nan nan nan nan nan nan nan nan nan nan nan nan
248 247 243 237 224 205 223 244 244 246 249 250 255 259 263 264 264 269 274 276 280 283 286 287 288 291 292 294 297 300 297 297 298 298 300 302 305 301 300 307 310 313 307 302 308 307 nan nan nan nan nan 302 nan nan nan nan nan nan nan nan nan nan nan nan nan nan nan nan nan nan nan nan nan nan nan nan nan nan nan nan nan nan nan nan nan nan nan
249 247 252 256 254 231 213 248 252 253 254 256 255 256 260 263 268 271 271 275 279 283 286 287 290 293 294 297 299 297 295 297 295 297 299 298 296 291 297 306 309 313 321 310 314 315 nan nan 323 308 nan nan nan nan nan nan nan nan nan nan nan nan nan nan nan nan nan nan nan nan nan nan nan nan nan nan nan nan nan nan nan nan nan nan nan nan nan
247 252 254 256 260 260 240 254 260 261 260 260 257 260 264 268 272 275 273 272 276 279 282 287 290 291 294 296 294 292 291 292 295 298 301 303 304 301 302 303 305 306 314 317 314 313 314 312 305 311 nan nan nan nan nan 337 330 nan nan nan nan nan nan nan nan nan nan nan nan nan nan nan nan nan nan nan nan nan nan nan nan nan nan nan nan nan nan
245 251 255 255 252 244 230 249 254 260 264 263 263 262 264 267 268 270 275 278 278 279 281 283 284 287 290 291 289 289 291 294 297 301 297 298 304 305 308 308 301 304 316 325 308 311 298 301 309 312 318 327 nan nan nan 340 nan 341 nan nan nan nan nan nan nan nan nan nan nan nan nan nan nan nan nan nan nan nan nan nan nan nan nan nan nan nan nan
253 252 252 254 252 250 249 250 258 265 269 270 269 268 267 263 264 264 270 273 277 278 278 279 281 284 286 287 288 290 295 298 296 294 286 283 290 299 306 308 306 307 307 312 312 307 300 312 313 320 326 326 nan nan nan 336 337 345 nan nan nan nan nan nan nan nan nan nan nan nan nan nan nan nan nan nan nan nan nan nan nan nan nan nan nan nan nan
251 250 244 239 241 244 252 259 265 267 267 267 269 271 269 267 265 266 273 273 275 275 278 278 279 281 284 285 288 292 296 295 296 297 294 294 292 292 298 298 296 301 309 315 291 289 310 314 318 323 325 329 nan nan nan 336 344 nan 2 nan nan nan nan nan nan nan nan nan nan nan nan nan nan nan nan nan nan nan nan nan nan nan nan nan nan nan nan
246 245 239 233 237 247 253 258 261 262 262 266 269 270 275 276 279 282 282 280 282 281 280 280 281 281 283 284 287 289 281 279 294 295 295 294 294 296 291 289 298 307 309 307 306 304 308 315 323 324 330 336 nan 326 319 337 355 nan nan nan nan nan nan nan nan nan nan nan nan nan nan nan nan nan nan nan nan nan nan nan nan nan nan nan nan nan nan
246 236 238 238 242 250 254 256 262 260 265 270 272 278 282 285 287 287 284 286 285 284 283 284 283 281 282 286 289 286 283 280 277 283 284 282 280 276 282 289 294 309 318 304 301 300 310 319 322 328 332 338 336 331 338 348 358 348 nan nan nan nan nan nan nan nan nan nan nan nan nan nan nan nan nan nan nan nan nan nan nan nan nan nan nan nan nan
235 245 242 252 256 252 253 253 257 261 265 269 273 276 280 283 280 282 283 285 282 283 284 284 283 284 286 287 286 284 283 282 278 279 275 278 275 282 288 288 292 297 305 298 294 295 308 322 325 330 335 335 336 327 342 355 353 nan nan nan nan nan nan nan nan nan nan nan nan nan nan nan nan nan nan nan nan nan nan nan nan nan nan nan nan nan nan
244 250 254 260 260 262 258 260 262 263 265 269 272 276 277 273 275 278 278 285 282 282 281 281 282 283 283 nan 285 283 nan 284 281 280 278 278 279 278 279 290 289 297 298 295 295 307 314 313 317 327 330 331 330 335 335 324 345 nan nan 9 nan nan nan nan nan nan nan nan nan nan nan nan nan nan nan nan nan nan nan nan nan nan nan nan nan nan nan